Location: Alpha Ridge Park
(39.3209°N, 76.9128°W)
Time: 22:29:46
(UTC-04:00)

S-56A Canister/Altair - Pass Details

Date: 28 May 2019
Orbit: 633 x 2499 km, 38.9° (Epoch: 14 June)

Event Time Altitude Azimuth Distance (km) Brightness Sun altitude
Rises 22:54:58 0° 198° (SSW) 2,904 - -22.0°
Reaches altitude 10° 22:58:08 10° 173° (S) 2,049 - -22.3°
Maximum altitude 23:00:38 14° 139° (SE) 1,856 - -22.5°
Drops below altitude 10° 23:03:22 10° 106° (ESE) 2,284 - -22.8°
Sets 23:07:14 0° 83° (E) 3,490 - -23.2°
